• In Uzbekistan
  • List of Countries
  • For 7 days
  • Water Temperature
  • Satellite Maps
  • Weather Map
  • Weather Widgets
  • user-avatar
    Login

    Hourly Weather San Luis

    Today, 21 October, Saturday

    Time Temperature Precipitation Wind Pressure Humidity
    00:00 +13°C° 0 mm 6 mps 700 mmHg 43%
    01:00 +13°C° 0 mm 5 mps 700 mmHg 43%
    02:00 +12°C° 0 mm 4 mps 700 mmHg 44%
    03:00 +12°C° 0 mm 4 mps 700 mmHg 46%
    04:00 +11°C° 0 mm 4 mps 700 mmHg 47%
    05:00 +11°C° 0 mm 4 mps 701 mmHg 49%
    06:00 +12°C° 0 mm 4 mps 702 mmHg 45%
    07:00 +14°C° 0 mm 4 mps 702 mmHg 41%
    08:00 +15°C° 0 mm 5 mps 703 mmHg 37%
    09:00 +16°C° 0 mm 5 mps 704 mmHg 32%
    10:00 +19°C° 0 mm 5 mps 704 mmHg 28%
    11:00 +20°C° 0 mm 5 mps 704 mmHg 24%
    12:00 +21°C° 0 mm 5 mps 704 mmHg 23%
    13:00 +22°C° 0 mm 5 mps 704 mmHg 22%
    14:00 +22°C° 0 mm 5 mps 704 mmHg 22%
    15:00 +22°C° 0 mm 5 mps 703 mmHg 22%
    16:00 +22°C° 0 mm 6 mps 703 mmHg 22%
    17:00 +22°C° 0 mm 6 mps 703 mmHg 22%
    18:00 +20°C° 0 mm 6 mps 703 mmHg 24%
    19:00 +17°C° 0 mm 5 mps 704 mmHg 26%
    20:00 +16°C° 0 mm 5 mps 704 mmHg 28%
    21:00 +15°C° 0 mm 5 mps 704 mmHg 29%
    22:00 +15°C° 0 mm 5 mps 705 mmHg 30%
    23:00 +14°C° 0 mm 5 mps 705 mmHg 31%

    Tomorrow, 22 October, Sunday

    Time Temperature Precipitation Wind Pressure Humidity
    00:00 +13°C° 0 mm 5 mps 705 mmHg 34%
    01:00 +12°C° 0 mm 5 mps 704 mmHg 37%
    02:00 +12°C° 0 mm 5 mps 704 mmHg 39%
    03:00 +12°C° 0 mm 5 mps 704 mmHg 39%
    04:00 +12°C° 0 mm 5 mps 703 mmHg 38%
    05:00 +11°C° 0 mm 4 mps 703 mmHg 38%
    06:00 +14°C° 0 mm 5 mps 703 mmHg 35%
    07:00 +16°C° 0 mm 5 mps 704 mmHg 31%
    08:00 +19°C° 0 mm 5 mps 704 mmHg 28%
    09:00 +20°C° 0 mm 6 mps 704 mmHg 27%
    10:00 +22°C° 0 mm 6 mps 704 mmHg 25%
    11:00 +24°C° 0 mm 7 mps 703 mmHg 24%
    12:00 +26°C° 0 mm 7 mps 702 mmHg 23%
    13:00 +26°C° 0 mm 8 mps 701 mmHg 22%
    14:00 +27°C° 0 mm 8 mps 700 mmHg 21%
    15:00 +27°C° 0 mm 8 mps 700 mmHg 21%
    16:00 +27°C° 0 mm 8 mps 699 mmHg 21%
    17:00 +27°C° 0 mm 8 mps 698 mmHg 21%
    18:00 +24°C° 0 mm 8 mps 698 mmHg 24%
    19:00 +22°C° 0 mm 7 mps 698 mmHg 27%
    20:00 +21°C° 0 mm 7 mps 699 mmHg 29%
    21:00 +20°C° 0 mm 8 mps 699 mmHg 30%
    22:00 +18°C° 0 mm 9 mps 699 mmHg 31%
    23:00 +18°C° 0 mm 10 mps 699 mmHg 31%

    Day after tomorrow, 23 October, Monday

    Time Temperature Precipitation Wind Pressure Humidity
    00:00 +18°C° 0 mm 10 mps 698 mmHg 32%
    01:00 +17°C° 0 mm 10 mps 698 mmHg 32%
    02:00 +17°C° 0 mm 9 mps 697 mmHg 33%
    03:00 +16°C° 0 mm 9 mps 697 mmHg 34%
    04:00 +16°C° 0 mm 9 mps 697 mmHg 36%
    05:00 +16°C° 0 mm 8 mps 697 mmHg 37%
    06:00 +17°C° 0 mm 9 mps 698 mmHg 36%
    07:00 +18°C° 0 mm 9 mps 698 mmHg 34%
    08:00 +19°C° 0 mm 9 mps 699 mmHg 32%
    09:00 +22°C° 0 mm 9 mps 699 mmHg 30%
    10:00 +24°C° 0 mm 8 mps 698 mmHg 27%
    11:00 +26°C° 0 mm 8 mps 698 mmHg 25%
    12:00 +27°C° 0 mm 7 mps 698 mmHg 23%
    13:00 +28°C° 0 mm 7 mps 697 mmHg 22%
    14:00 +29°C° 0 mm 6 mps 696 mmHg 20%
    15:00 +29°C° 0 mm 6 mps 696 mmHg 21%
    16:00 +29°C° 0 mm 6 mps 695 mmHg 21%
    17:00 +28°C° 0 mm 6 mps 695 mmHg 22%
    18:00 +27°C° 0 mm 6 mps 695 mmHg 26%
    19:00 +24°C° 0 mm 6 mps 695 mmHg 29%
    20:00 +22°C° 0 mm 5 mps 695 mmHg 33%
    21:00 +21°C° 0 mm 7 mps 695 mmHg 34%
    22:00 +21°C° 0 mm 8 mps 696 mmHg 35%
    23:00 +21°C° 0 mm 9 mps 696 mmHg 36%

    24 October, Tuesday

    Time Temperature Precipitation Wind Pressure Humidity
    00:00 +19°C° 0 mm 9 mps 696 mmHg 36%
    01:00 +20°C° 0 mm 8 mps 695 mmHg 36%
    02:00 +20°C° 0 mm 7 mps 695 mmHg 36%
    03:00 +18°C° 0 mm 7 mps 695 mmHg 38%
    04:00 +17°C° 0 mm 6 mps 695 mmHg 39%
    05:00 +17°C° 0 mm 5 mps 695 mmHg 40%
    06:00 +20°C° 0 mm 5 mps 696 mmHg 36%
    07:00 +21°C° 0 mm 5 mps 697 mmHg 32%
    08:00 +23°C° 0 mm 5 mps 698 mmHg 29%
    09:00 +25°C° 0 mm 4 mps 698 mmHg 27%
    10:00 +26°C° 0 mm 4 mps 698 mmHg 25%
    11:00 +28°C° 0 mm 3 mps 699 mmHg 23%
    12:00 +28°C° 0 mm 3 mps 698 mmHg 22%
    13:00 +29°C° 0 mm 3 mps 698 mmHg 21%
    14:00 +30°C° 0 mm 3 mps 697 mmHg 21%
    15:00 +29°C° 0 mm 4 mps 697 mmHg 21%
    16:00 +29°C° 0 mm 4 mps 697 mmHg 22%
    17:00 +29°C° 0 mm 5 mps 696 mmHg 23%
    18:00 +28°C° 0 mm 5 mps 696 mmHg 28%
    19:00 +26°C° 0 mm 6 mps 697 mmHg 33%
    20:00 +23°C° 0 mm 7 mps 697 mmHg 38%
    21:00 +23°C° 0 mm 6 mps 697 mmHg 41%
    22:00 +22°C° 0 mm 5 mps 697 mmHg 44%
    23:00 +21°C° 0 mm 5 mps 697 mmHg 46%

    25 October, Wednesday

    Time Temperature Precipitation Wind Pressure Humidity
    00:00 +21°C° 0.2 mm 4 mps 697 mmHg 47%
    01:00 +21°C° 0.2 mm 4 mps 697 mmHg 47%
    02:00 +20°C° 0.2 mm 3 mps 696 mmHg 48%
    03:00 +20°C° 0.1 mm 3 mps 696 mmHg 49%
    04:00 +19°C° 0.1 mm 3 mps 696 mmHg 51%
    05:00 +19°C° 0.1 mm 3 mps 696 mmHg 53%
    06:00 +21°C° 0.1 mm 4 mps 696 mmHg 48%
    07:00 +22°C° 0.1 mm 5 mps 697 mmHg 44%
    08:00 +24°C° 0.1 mm 6 mps 697 mmHg 40%
    09:00 +26°C° 0 mm 6 mps 697 mmHg 36%
    10:00 +28°C° 0 mm 5 mps 697 mmHg 33%
    11:00 +29°C° 0 mm 5 mps 697 mmHg 30%
    12:00 +29°C° 0.1 mm 5 mps 696 mmHg 29%
    13:00 +30°C° 0.1 mm 4 mps 696 mmHg 29%
    14:00 +30°C° 0.1 mm 4 mps 695 mmHg 29%
    15:00 +29°C° 0 mm 4 mps 695 mmHg 31%
    16:00 +28°C° 0 mm 4 mps 695 mmHg 33%
    17:00 +28°C° 0 mm 5 mps 694 mmHg 35%
    18:00 +26°C° 0.1 mm 4 mps 694 mmHg 39%
    19:00 +25°C° 0.1 mm 4 mps 695 mmHg 44%
    20:00 +22°C° 0.1 mm 4 mps 695 mmHg 49%
    21:00 +22°C° 0 mm 4 mps 695 mmHg 51%
    22:00 +21°C° 0 mm 4 mps 695 mmHg 53%
    23:00 +21°C° 0 mm 4 mps 696 mmHg 55%

    26 October, Thursday

    Time Temperature Precipitation Wind Pressure Humidity
    00:00 +20°C° 0.2 mm 3 mps 695 mmHg 58%
    01:00 +20°C° 0.2 mm 3 mps 695 mmHg 60%
    02:00 +19°C° 0.2 mm 2 mps 695 mmHg 63%
    03:00 +19°C° 0.2 mm 3 mps 696 mmHg 66%
    04:00 +18°C° 0.2 mm 3 mps 696 mmHg 70%
    05:00 +18°C° 0.2 mm 3 mps 696 mmHg 73%
    06:00 +19°C° 0.1 mm 3 mps 697 mmHg 69%
    07:00 +20°C° 0.1 mm 3 mps 698 mmHg 64%
    08:00 +21°C° 0.1 mm 3 mps 698 mmHg 60%
    09:00 +24°C° 0.2 mm 3 mps 699 mmHg 54%
    10:00 +25°C° 0.2 mm 3 mps 699 mmHg 48%
    11:00 +27°C° 0.2 mm 3 mps 699 mmHg 42%
    12:00 +27°C° 0.3 mm 3 mps 698 mmHg 41%
    13:00 +28°C° 0.3 mm 4 mps 698 mmHg 39%
    14:00 +28°C° 0.3 mm 4 mps 697 mmHg 37%
    15:00 +28°C° 0.1 mm 4 mps 697 mmHg 38%
    16:00 +28°C° 0.1 mm 5 mps 697 mmHg 39%
    17:00 +28°C° 0.1 mm 5 mps 696 mmHg 40%
    18:00 +27°C° 0.1 mm 5 mps 696 mmHg 45%
    19:00 +25°C° 0.1 mm 5 mps 697 mmHg 51%
    20:00 +23°C° 0.1 mm 5 mps 697 mmHg 56%
    21:00 +22°C° 0.1 mm 5 mps 697 mmHg 59%
    22:00 +21°C° 0.1 mm 5 mps 697 mmHg 62%
    23:00 +21°C° 0.1 mm 5 mps 697 mmHg 65%
    Show more